Regional Weather Roundup
Issued by NWS Goodland, KS

Home | Current Version | Previous Version | Graphics & Text | Print | Product List | Glossary On
Versions: 1 2 3 4 5 6 7 8 9 10 11 12 13 14 15 16 17 18 19 20 21 22 23 24 25 26 27 28 29 30 31 32 33 34 35 36 37 38 39 40 41 42 43 44 45 46 47 48 49 50
000
ASUS43 KGLD 242208
RWRGLD

GOODLAND FORECAST AREA HOURLY WEATHER ROUNDUP
NATIONAL WEATHER SERVICE GOODLAND KS
400 PM MDT THU JUL 24 2014

...OFFICIAL OBSERVATIONS...

CITY           SKY/WX    TMP DP  RH WIND       PRES   REMARKS
GOODLAND KS    SUNNY    100  45  15 S18G25    29.92F
HILL CITY KS   SUNNY    100  66  32 S21G31    29.88F HX 104
IMPERIAL NEB   MOSUNNY  102  45  14 S14       29.84F
MCCOOK NEB     SUNNY    103  55  20 S20G29    29.84F HX 101
AKRON CO       MOSUNNY   98  39  13 NW13      29.96F
BURLINGTON CO  MOSUNNY   99  37  11 S20G26    29.96F
LIMON CO       PTSUNNY   93  45  19 S15G25    30.02F
$$

...UNOFFICIAL OBSERVATIONS...

CITY           SKY/WX    TMP DP  RH WIND       PRES   REMARKS
COLBY KS       SUNNY    100  55  22 S24G30    29.91F
GOVE KS          N/A    100  32   9 MISG        N/A
NORTON KS      SUNNY     99  57  25 SE21G30   29.86F
OBERLIN KS     FAIR     104  46  14 S24G30    29.86F HX 100
SHARON SPRINGS   N/A     99  46  16 S18G26      N/A
ST FRANCIS KS  MOSUNNY  102  23   6 S23       29.87
TRIBUNE KS     SUNNY    100 N/A N/A S18G31    29.95
WAKEENEY KS      N/A     99  58  25 MISG        N/A
TRENTON NEB      N/A    101  32   9 S18         N/A
KIT CARSON CO    N/A    102  44  13 N12G21      N/A
YUMA CO          N/A     91  53  27 E7          N/A
$$


USA.gov is the U.S. government's official web portal to all federal, state and local government web resources and services.